FW9014 Weather Reports


Display with metric or nautical units.
time (UTC)temp
F
wind
direction
speed
MPH
gust
MPH
rain 1hr
in
rain 24hr
in
rain mn
in
humidity
%
barometer
mb
20260507220048 75 55 3.0 9.0 0.00 0.01 0.01 62 1014.5
20260507214548 76 15 5.0 12.0 0.00 0.01 0.01 60 1014.7
20260507213102 76 5 2.0 7.0 0.00 0.01 0.01 61 1014.6
20260507211546 75 86 3.0 14.0 0.00 0.01 0.01 63 1014.6
20260507210055 76 69 3.0 12.0 0.00 0.01 0.01 61 1014.7
20260507204600 77 19 4.0 10.0 0.00 0.01 0.01 60 1015.3
20260507203048 76 45 3.0 10.0 0.00 0.01 0.01 59 1015.4
20260507201547 75 5 7.0 15.0 0.00 0.01 0.01 60 1015.4
20260507200046 75 0 2.0 12.0 0.00 0.01 0.01 62 1015.7
20260507194546 74 36 3.0 11.0 0.00 0.01 0.01 63 1015.7
20260507193053 73 96 4.0 13.0 0.00 0.01 0.01 63 1016.3
20260507191549 74 44 3.0 11.0 0.00 0.01 0.01 63 1016.1
20260507190055 74 136 4.0 10.0 0.00 0.01 0.01 62 1015.8
20260507184547 73 0 1.0 9.0 0.00 0.01 0.01 66 1015.9
20260507183048 72 11 8.0 12.0 0.00 0.01 0.01 69 1016.6
20260507181546 72 325 1.0 10.0 0.00 0.01 0.01 69 1016.5
20260507180050 70 360 6.0 13.0 0.00 0.01 0.01 69 1016.6
20260507174549 69 9 9.0 14.0 0.00 0.01 0.01 72 1017.1
20260507173053 69 13 9.0 12.0 0.00 0.01 0.01 73 1017.2
20260507171549 68 9 6.0 13.0 0.00 0.01 0.01 74 1016.8
20260507170056 68 13 6.0 15.0 0.00 0.01 0.01 74 1017.0
20260507164546 68 85 3.0 9.0 0.00 0.01 0.01 74 1017.1
20260507163051 67 108 6.0 11.0 0.00 0.01 0.01 76 1016.5
20260507161548 65 82 3.0 11.0 0.00 0.01 0.01 79 1016.4
20260507160059 63 80 4.0 12.0 0.00 0.01 0.01 80 1016.5
20260507154548 63 5 6.0 12.0 0.00 0.02 0.01 81 1017.0
20260507153055 62 337 2.0 9.0 0.00 0.02 0.01 83 1017.4
20260507151549 61 24 4.0 14.0 0.00 0.02 0.01 84 1017.7
20260507150052 60 39 9.0 14.0 0.00 0.02 0.01 84 1017.5
20260507144551 60 19 1.0 9.0 0.01 0.02 0.01 86 1017.6
20260507143048 60 66 3.0 10.0 0.01 0.02 0.01 87 1017.7
20260507141600 59 78 2.0 9.0 0.01 0.02 0.01 88 1017.9
20260507140116 59 19 3.0 14.0 0.01 0.02 0.01 88 1017.8
20260507134553 59 16 4.0 14.0 0.00 0.01 0.00 88 1017.8
20260507133051 59 13 4.0 12.0 0.00 0.01 0.00 88 1017.7
20260507131600 59 32 2.0 11.0 0.00 0.01 0.00 87 1017.7
20260507130108 59 20 11.0 15.0 0.00 0.01 0.00 87 1017.5
20260507124605 58 15 3.0 8.0 0.00 0.01 0.00 87 1017.4
20260507123055 59 82 3.0 10.0 0.00 0.01 0.00 87 1016.5
20260507121550 59 54 0.0 5.0 0.00 0.01 0.00 87 1016.4
20260507120051 59 41 2.0 7.0 0.00 0.01 0.00 87 1016.5
20260507114549 59 31 9.0 15.0 0.00 0.01 0.00 87 1016.4
20260507113047 59 55 4.0 9.0 0.00 0.01 0.00 87 1016.0
20260507111548 59 355 2.0 9.0 0.00 0.01 0.00 88 1015.9
20260507110046 59 22 4.0 9.0 0.00 0.01 0.00 88 1015.8
20260507104543 60 75 5.0 12.0 0.00 0.01 0.00 88 1015.4
20260507103052 60 44 1.0 4.0 0.00 0.01 0.00 88 1015.5
20260507101550 60 36 2.0 8.0 0.00 0.01 0.00 88 1014.6
20260507100048 60 0 1.0 8.0 0.00 0.01 0.00 89 1014.3
20260507094552 60 355 1.0 5.0 0.00 0.01 0.00 89 1014.1
20260507093045 60 0 1.0 8.0 0.00 0.01 0.00 89 1014.5
20260507091543 60 9 5.0 13.0 0.00 0.01 0.00 89 1014.8
20260507090046 61 44 1.0 8.0 0.00 0.01 0.00 88 1014.6
20260507084553 61 69 3.0 10.0 0.00 0.01 0.00 87 1014.4
20260507083050 61 36 2.0 8.0 0.00 0.01 0.00 88 1014.7
20260507081547 61 30 4.0 11.0 0.00 0.01 0.00 89 1015.1
20260507080107 62 22 8.0 16.0 0.00 0.01 0.00 89 1015.2
20260507074547 62 28 5.0 13.0 0.00 0.01 0.00 88 1014.5
20260507073050 63 12 10.0 17.0 0.00 0.01 0.00 88 1015.1
20260507071600 64 38 9.0 15.0 0.00 0.01 0.00 87 1014.9
20260507070051 64 9 8.0 17.0 0.00 0.01 0.00 88 1015.2
20260507064553 64 22 2.0 13.0 0.00 0.01 0.00 88 1014.4
20260507063049 65 51 4.0 11.0 0.00 0.01 0.00 89 1014.3
20260507061547 65 42 5.0 13.0 0.00 0.01 0.00 89 1014.6
20260507060047 65 24 3.0 9.0 0.00 0.01 0.00 89 1014.7
20260507054550 65 0 2.0 11.0 0.00 0.01 0.00 88 1014.5
20260507053055 66 25 4.0 16.0 0.00 0.01 0.00 88 1014.5
20260507051549 66 5 11.0 19.0 0.00 0.01 0.00 88 1014.5
20260507050047 67 9 11.0 17.0 0.00 0.01 0.00 87 1014.4
20260507044550 67 22 12.0 18.0 0.00 0.01 0.01 87 1014.4
20260507043050 67 14 8.0 17.0 0.00 0.01 0.01 86 1013.9
20260507041555 68 9 12.0 17.0 0.00 0.01 0.01 86 1014.6
20260507040058 68 9 7.0 14.0 0.00 0.01 0.01 85 1014.2
20260507034555 69 19 6.0 16.0 0.00 0.01 0.01 85 1013.6
20260507033047 69 24 8.0 16.0 0.00 0.01 0.01 84 1013.6
20260507031543 70 9 10.0 16.0 0.00 0.01 0.01 84 1013.0
20260507030053 70 22 9.0 15.0 0.00 0.01 0.01 84 1012.9
20260507024547 71 16 7.0 12.0 0.00 0.01 0.01 85 1012.6
20260507023047 71 30 9.0 15.0 0.00 0.01 0.01 85 1012.4
20260507021548 72 25 7.0 14.0 0.00 0.01 0.01 84 1012.2
20260507020053 72 360 8.0 14.0 0.00 0.01 0.01 85 1012.0
20260507014601 73 22 12.0 16.0 0.00 0.01 0.01 85 1011.5
20260507013047 73 13 9.0 15.0 0.00 0.01 0.01 84 1011.2
20260507011602 74 11 13.0 17.0 0.00 0.01 0.01 85 1011.3
20260507010046 74 5 13.0 17.0 0.00 0.01 0.01 85 1010.9
20260507004551 75 360 13.0 19.0 0.00 0.01 0.01 85 1010.6
20260507003047 75 5 13.0 17.0 0.00 0.01 0.01 85 1010.2
20260507001605 75 5 10.0 22.0 0.00 0.01 0.01 85 1009.9
20260507000056 76 5 19.0 27.0 0.00 0.01 0.01 84 1009.8
20260506234548 76 17 15.0 22.0 0.00 0.01 0.01 86 1009.7
20260506233046 76 350 19.0 24.0 0.00 0.01 0.01 86 1009.5
20260506231545 82 350 4.0 6.0 0.00 0.01 0.01 85 1009.4
20260506230054 83 0 0.0 0.0 0.00 0.01 0.01 82 1009.1
20260506224549 82 0 0.0 0.0 0.00 0.01 0.01 84 1008.8
20260506223048 83 336 2.0 4.0 0.00 0.01 0.01 83 1008.9
20260506221547 84 174 0.0 0.0 0.00 0.01 0.01 79 1008.8